GW1299 Weather Reports


time (UTC)temp
C
wind
direction
speed
KPH
gust
KPH
rain 1hr
cm
rain 24hr
cm
rain mn
cm
humidity
%
barometer
mb
20260504081546 10 358 0.0 3.2 0.00 0.00 0.00 65 1015.9
20260504050018 6 106 0.0 0.0 0.00 0.00 0.00 74 1016.0
20260504044518 6 106 0.0 0.0 0.00 0.00 0.00 75 1016.0
20260504043016 6 106 0.0 0.0 0.00 0.00 0.00 74 1016.1
20260504041511 6 106 0.0 0.0 0.00 0.00 0.00 73 1016.1
20260504040008 6 106 0.0 0.0 0.00 0.00 0.00 73 1016.1
20260504034510 6 106 0.0 0.0 0.00 0.00 0.00 72 1015.9
20260504033007 6 106 0.0 0.0 0.00 0.00 0.00 69 1015.8
20260504031511 7 106 0.0 3.2 0.00 0.00 0.00 67 1015.7
20260504030007 7 317 0.0 3.2 0.00 0.00 0.00 69 1015.4
20260504024506 7 317 0.0 3.2 0.00 0.00 0.00 66 1015.5
20260504023008 7 317 0.0 3.2 0.00 0.00 0.00 66 1015.5
20260504021509 7 317 0.0 1.6 0.00 0.00 0.00 66 1015.4
20260504020004 8 317 0.0 0.0 0.00 0.00 0.00 62 1015.3
20260504014504 8 317 0.0 1.6 0.00 0.00 0.00 61 1015.3
20260504013005 9 317 0.0 0.0 0.00 0.00 0.00 59 1015.3
20260504011502 9 317 0.0 0.0 0.00 0.00 0.00 58 1015.1
20260504010003 10 317 0.0 0.0 0.00 0.00 0.00 54 1015.0
20260504004505 11 317 0.0 3.2 0.00 0.00 0.00 51 1015.0
20260504003001 12 317 0.0 3.2 0.00 0.00 0.00 45 1014.7
20260504001503 13 317 0.0 3.2 0.00 0.00 0.00 41 1014.5
20260504000105 14 317 0.0 3.2 0.00 0.00 0.00 36 1014.5
20260503234600 15 318 0.0 3.2 0.00 0.00 0.00 34 1014.4
20260503233109 15 318 0.0 3.2 0.00 0.00 0.00 34 1014.2
20260503231559 16 277 3.2 12.9 0.00 0.00 0.00 31 1014.2
20260503230112 16 3 1.6 11.3 0.00 0.00 0.00 29 1014.1
20260503224602 16 37 0.0 14.5 0.00 0.00 0.00 30 1014.2
20260503223112 16 286 8.0 16.1 0.00 0.00 0.00 28 1014.3
20260503221556 16 328 0.0 16.1 0.00 0.00 0.00 31 1014.3
20260503220055 16 325 0.0 16.1 0.00 0.00 0.00 31 1014.4
20260503214557 16 280 0.0 14.5 0.00 0.00 0.00 31 1014.3
20260503213052 16 284 1.6 12.9 0.00 0.00 0.00 30 1014.2
20260503211550 16 261 4.8 16.1 0.00 0.00 0.00 32 1014.2
20260503210049 16 37 0.0 19.3 0.00 0.00 0.00 33 1014.3
20260503204548 16 307 3.2 17.7 0.00 0.00 0.00 32 1014.4
20260503203049 16 323 4.8 12.9 0.00 0.00 0.00 31 1014.5
20260503201550 16 303 8.0 22.5 0.00 0.00 0.00 31 1014.7
20260503200047 16 327 11.3 24.1 0.00 0.00 0.00 31 1014.9
20260503194556 15 292 6.4 19.3 0.00 0.00 0.00 35 1015.1
20260503193044 15 223 11.3 27.4 0.00 0.00 0.00 32 1015.2
20260503191547 15 301 3.2 20.9 0.00 0.00 0.00 33 1015.4
20260503190046 15 336 4.8 25.7 0.00 0.00 0.00 36 1015.7
20260503184543 15 223 6.4 16.1 0.00 0.00 0.00 37 1015.7
20260503183045 15 309 6.4 30.6 0.00 0.00 0.00 35 1015.8
20260503181556 15 353 8.0 25.7 0.00 0.00 0.00 34 1016.1
20260503180047 15 289 4.8 25.7 0.00 0.00 0.00 35 1016.1
20260503174538 15 316 3.2 17.7 0.00 0.00 0.00 37 1016.2
20260503173040 13 67 3.2 22.5 0.00 0.00 0.00 35 1016.2
20260503171534 14 320 8.0 22.5 0.00 0.00 0.00 35 1016.3